Time,TemperatureF,DewpointF,PressureIn,WindDirection,WindDirectionDegrees,WindSpeedMPH,WindSpeedGustMPH,Humidity,HourlyPrecipIn,Conditions,Clouds,dailyrainin,SoftwareType,DateUTC
2013-04-17 00:03:00,52.0,-99.9,30.11,West,262,15.0,-999.0,-999,-99.99,,,-99.99,,2013-04-17 04:03:00,
2013-04-17 00:13:00,52.0,-99.9,30.11,West,262,15.0,-999.0,-999,-99.99,,,-99.99,,2013-04-17 04:13:00,
2013-04-17 00:23:00,52.0,-99.9,30.12,West,272,20.0,-999.0,-999,-99.99,,,-99.99,,2013-04-17 04:23:00,
2013-04-17 00:33:00,52.0,-99.9,30.12,West,272,20.0,-999.0,-999,-99.99,,,-99.99,,2013-04-17 04:33:00,
2013-04-17 00:43:00,52.0,-99.9,30.12,West,272,20.0,-999.0,-999,-99.99,,,-99.99,,2013-04-17 04:43:00,
2013-04-17 00:53:00,53.0,-99.9,30.10,West,267,19.0,-999.0,-999,-99.99,,,-99.99,,2013-04-17 04:53:00,
2013-04-17 01:03:00,53.0,-99.9,30.10,West,267,19.0,-999.0,-999,-99.99,,,-99.99,,2013-04-17 05:03:00,
2013-04-17 01:12:00,53.0,-99.9,30.10,West,267,19.0,-999.0,-999,-99.99,,,-99.99,,2013-04-17 05:12:00,
2013-04-17 01:22:00,53.0,-99.9,30.11,West,280,11.0,-999.0,-999,-99.99,,,-99.99,,2013-04-17 05:22:00,
2013-04-17 01:32:00,53.0,-99.9,30.11,West,280,11.0,-999.0,-999,-99.99,,,-99.99,,2013-04-17 05:32:00,
2013-04-17 01:43:00,53.0,-99.9,30.09,West,261,10.0,-999.0,-999,-99.99,,,-99.99,,2013-04-17 05:43:00,
2013-04-17 01:52:00,53.0,-99.9,30.09,West,261,10.0,-999.0,-999,-99.99,,,-99.99,,2013-04-17 05:52:00,
2013-04-17 02:02:00,53.0,-99.9,30.09,West,261,10.0,-999.0,-999,-99.99,,,-99.99,,2013-04-17 06:02:00,
2013-04-17 02:12:00,53.0,-99.9,30.09,West,261,10.0,-999.0,-999,-99.99,,,-99.99,,2013-04-17 06:12:00,
2013-04-17 02:22:00,54.0,-99.9,30.08,WNW,296,16.0,-999.0,-999,-99.99,,,-99.99,,2013-04-17 06:22:00,
2013-04-17 02:32:00,54.0,-99.9,30.08,WNW,296,16.0,-999.0,-999,-99.99,,,-99.99,,2013-04-17 06:32:00,
2013-04-17 02:42:00,54.0,-99.9,30.08,WNW,296,16.0,-999.0,-999,-99.99,,,-99.99,,2013-04-17 06:42:00,
2013-04-17 02:52:00,54.0,-99.9,30.07,West,265,16.0,-999.0,-999,-99.99,,,-99.99,,2013-04-17 06:52:00,
2013-04-17 03:02:00,54.0,-99.9,30.07,West,265,16.0,-999.0,-999,-99.99,,,-99.99,,2013-04-17 07:02:00,
2013-04-17 03:12:00,54.0,-99.9,30.07,West,265,16.0,-999.0,-999,-99.99,,,-99.99,,2013-04-17 07:12:00,
2013-04-17 03:22:00,54.0,-99.9,30.07,WNW,286,18.0,-999.0,-999,-99.99,,,-99.99,,2013-04-17 07:22:00,
2013-04-17 03:32:00,54.0,-99.9,30.07,WNW,286,18.0,-999.0,-999,-99.99,,,-99.99,,2013-04-17 07:32:00,
2013-04-17 03:42:00,54.0,-99.9,30.06,WSW,253,16.0,-999.0,-999,-99.99,,,-99.99,,2013-04-17 07:42:00,
2013-04-17 03:52:00,54.0,-99.9,30.06,WSW,253,16.0,-999.0,-999,-99.99,,,-99.99,,2013-04-17 07:52:00,
2013-04-17 04:02:00,54.0,-99.9,30.06,WSW,253,16.0,-999.0,-999,-99.99,,,-99.99,,2013-04-17 08:02:00,
2013-04-17 04:12:00,54.0,-99.9,30.06,WSW,253,16.0,-999.0,-999,-99.99,,,-99.99,,2013-04-17 08:12:00,
2013-04-17 04:22:00,55.0,-99.9,30.08,NW,312,12.0,-999.0,-999,-99.99,,,-99.99,,2013-04-17 08:22:00,
2013-04-17 04:33:00,55.0,-99.9,30.08,NW,312,12.0,-999.0,-999,-99.99,,,-99.99,,2013-04-17 08:33:00,
2013-04-17 04:42:00,55.0,-99.9,30.07,WNW,282,8.0,-999.0,-999,-99.99,,,-99.99,,2013-04-17 08:42:00,
2013-04-17 04:52:00,55.0,-99.9,30.07,WNW,282,8.0,-999.0,-999,-99.99,,,-99.99,,2013-04-17 08:52:00,
2013-04-17 05:00:00,54.0,-99.9,30.08,WNW,282,5.0,-999.0,-999,-99.99,,,-99.99,,2013-04-17 09:00:00,
2013-04-17 05:02:00,55.0,-99.9,30.07,WNW,282,8.0,-999.0,-999,-99.99,,,-99.99,,2013-04-17 09:02:00,
2013-04-17 05:12:00,55.0,-99.9,30.07,WNW,282,8.0,-999.0,-999,-99.99,,,-99.99,,2013-04-17 09:12:00,
2013-04-17 05:22:00,54.0,-99.9,30.08,WNW,282,5.0,-999.0,-999,-99.99,,,-99.99,,2013-04-17 09:22:00,
2013-04-17 05:33:00,54.0,-99.9,30.08,WNW,282,5.0,-999.0,-999,-99.99,,,-99.99,,2013-04-17 09:33:00,
2013-04-17 05:43:00,54.0,-99.9,30.08,WNW,282,5.0,-999.0,-999,-99.99,,,-99.99,,2013-04-17 09:43:00,
2013-04-17 05:53:00,54.0,-99.9,30.08,WNW,282,5.0,-999.0,-999,-99.99,,,-99.99,,2013-04-17 09:53:00,
2013-04-17 06:23:00,54.0,-99.9,30.07,WNW,283,6.0,-999.0,-999,-99.99,,,-99.99,,2013-04-17 10:23:00,
2013-04-17 06:33:00,54.0,-99.9,30.07,WNW,283,6.0,-999.0,-999,-99.99,,,-99.99,,2013-04-17 10:33:00,
2013-04-17 06:43:00,53.0,-99.9,30.07,West,262,6.0,-999.0,-999,-99.99,,,-99.99,,2013-04-17 10:43:00,
2013-04-17 06:53:00,53.0,-99.9,30.07,West,262,6.0,-999.0,-999,-99.99,,,-99.99,,2013-04-17 10:53:00,
2013-04-17 07:02:00,53.0,-99.9,30.07,West,262,6.0,-999.0,-999,-99.99,,,-99.99,,2013-04-17 11:02:00,
2013-04-17 07:12:00,53.0,-99.9,30.07,West,262,6.0,-999.0,-999,-99.99,,,-99.99,,2013-04-17 11:12:00,
2013-04-17 07:22:00,53.0,-99.9,30.08,WSW,256,4.0,-999.0,-999,-99.99,,,-99.99,,2013-04-17 11:22:00,
2013-04-17 07:32:00,53.0,-99.9,30.08,WSW,256,4.0,-999.0,-999,-99.99,,,-99.99,,2013-04-17 11:32:00,
2013-04-17 07:42:00,53.0,-99.9,30.08,WSW,256,4.0,-999.0,-999,-99.99,,,-99.99,,2013-04-17 11:42:00,
2013-04-17 07:52:00,54.0,-99.9,30.10,WNW,286,1.0,-999.0,-999,-99.99,,,-99.99,,2013-04-17 11:52:00,
2013-04-17 08:03:00,54.0,-99.9,30.10,WNW,286,1.0,-999.0,-999,-99.99,,,-99.99,,2013-04-17 12:03:00,
2013-04-17 08:12:00,54.0,-99.9,30.10,WNW,286,1.0,-999.0,-999,-99.99,,,-99.99,,2013-04-17 12:12:00,
2013-04-17 08:22:00,56.0,-99.9,30.10,North,354,11.0,-999.0,-999,-99.99,,,-99.99,,2013-04-17 12:22:00,
2013-04-17 08:32:00,56.0,-99.9,30.10,North,354,11.0,-999.0,-999,-99.99,,,-99.99,,2013-04-17 12:32:00,
2013-04-17 08:42:00,57.0,-99.9,30.11,North,8,12.0,-999.0,-999,-99.99,,,-99.99,,2013-04-17 12:42:00,
2013-04-17 08:52:00,57.0,-99.9,30.11,North,8,12.0,-999.0,-999,-99.99,,,-99.99,,2013-04-17 12:52:00,
2013-04-17 09:02:00,57.0,-99.9,30.11,North,8,12.0,-999.0,-999,-99.99,,,-99.99,,2013-04-17 13:02:00,
2013-04-17 09:12:00,57.0,-99.9,30.11,North,8,12.0,-999.0,-999,-99.99,,,-99.99,,2013-04-17 13:12:00,
2013-04-17 09:22:00,57.0,-99.9,30.12,NNE,27,12.0,-999.0,-999,-99.99,,,-99.99,,2013-04-17 13:22:00,
2013-04-17 09:32:00,57.0,-99.9,30.12,NNE,27,12.0,-999.0,-999,-99.99,,,-99.99,,2013-04-17 13:32:00,
2013-04-17 09:42:00,57.0,-99.9,30.12,NNE,27,12.0,-999.0,-999,-99.99,,,-99.99,,2013-04-17 13:42:00,
2013-04-17 09:52:00,58.0,-99.9,30.13,NE,37,6.0,-999.0,-999,-99.99,,,-99.99,,2013-04-17 13:52:00,
2013-04-17 10:02:00,58.0,-99.9,30.13,NE,37,6.0,-999.0,-999,-99.99,,,-99.99,,2013-04-17 14:02:00,
2013-04-17 10:12:00,58.0,-99.9,30.13,NE,37,6.0,-999.0,-999,-99.99,,,-99.99,,2013-04-17 14:12:00,
2013-04-17 10:22:00,59.0,-99.9,30.13,NNE,28,10.0,-999.0,-999,-99.99,,,-99.99,,2013-04-17 14:22:00,
2013-04-17 10:32:00,59.0,-99.9,30.13,NNE,28,10.0,-999.0,-999,-99.99,,,-99.99,,2013-04-17 14:32:00,
2013-04-17 10:43:00,59.0,-99.9,30.13,NNE,28,10.0,-999.0,-999,-99.99,,,-99.99,,2013-04-17 14:43:00,
2013-04-17 10:52:00,60.0,-99.9,30.14,NE,40,12.0,-999.0,-999,-99.99,,,-99.99,,2013-04-17 14:52:00,
2013-04-17 11:02:00,60.0,-99.9,30.14,NE,40,12.0,-999.0,-999,-99.99,,,-99.99,,2013-04-17 15:02:00,
2013-04-17 11:12:00,60.0,-99.9,30.14,NE,40,12.0,-999.0,-999,-99.99,,,-99.99,,2013-04-17 15:12:00,
2013-04-17 11:22:00,62.0,-99.9,30.14,NE,50,7.0,-999.0,-999,-99.99,,,-99.99,,2013-04-17 15:22:00,
2013-04-17 11:33:00,62.0,-99.9,30.14,NE,50,7.0,-999.0,-999,-99.99,,,-99.99,,2013-04-17 15:33:00,
2013-04-17 11:43:00,62.0,-99.9,30.14,NE,50,7.0,-999.0,-999,-99.99,,,-99.99,,2013-04-17 15:43:00,
2013-04-17 11:53:00,63.0,-99.9,30.13,NNE,31,6.0,-999.0,-999,-99.99,,,-99.99,,2013-04-17 15:53:00,
2013-04-17 12:03:00,63.0,-99.9,30.13,NNE,31,6.0,-999.0,-999,-99.99,,,-99.99,,2013-04-17 16:03:00,
2013-04-17 12:13:00,63.0,-99.9,30.13,NNE,31,6.0,-999.0,-999,-99.99,,,-99.99,,2013-04-17 16:13:00,
2013-04-17 12:23:00,64.0,-99.9,30.13,East,93,3.0,-999.0,-999,-99.99,,,-99.99,,2013-04-17 16:23:00,
2013-04-17 12:32:00,64.0,-99.9,30.13,East,93,3.0,-999.0,-999,-99.99,,,-99.99,,2013-04-17 16:32:00,
2013-04-17 12:42:00,64.0,-99.9,30.13,East,93,3.0,-999.0,-999,-99.99,,,-99.99,,2013-04-17 16:42:00,
2013-04-17 12:52:00,55.0,-99.9,30.12,SSW,211,12.0,-999.0,-999,-99.99,,,-99.99,,2013-04-17 16:52:00,
2013-04-17 13:02:00,55.0,-99.9,30.12,SSW,211,12.0,-999.0,-999,-99.99,,,-99.99,,2013-04-17 17:02:00,
2013-04-17 13:13:00,55.0,-99.9,30.12,SSW,211,12.0,-999.0,-999,-99.99,,,-99.99,,2013-04-17 17:13:00,
2013-04-17 13:22:00,56.0,-99.9,30.13,SSW,199,11.0,-999.0,-999,-99.99,,,-99.99,,2013-04-17 17:22:00,
2013-04-17 13:33:00,56.0,-99.9,30.13,SSW,199,11.0,-999.0,-999,-99.99,,,-99.99,,2013-04-17 17:33:00,
2013-04-17 13:42:00,56.0,-99.9,30.13,SSW,199,11.0,-999.0,-999,-99.99,,,-99.99,,2013-04-17 17:42:00,
2013-04-17 13:52:00,54.0,-99.9,30.12,SSW,207,11.0,-999.0,-999,-99.99,,,-99.99,,2013-04-17 17:52:00,
2013-04-17 14:02:00,54.0,-99.9,30.12,SSW,207,11.0,-999.0,-999,-99.99,,,-99.99,,2013-04-17 18:02:00,
2013-04-17 14:12:00,54.0,-99.9,30.12,SSW,207,11.0,-999.0,-999,-99.99,,,-99.99,,2013-04-17 18:12:00,
2013-04-17 14:22:00,55.0,-99.9,30.12,SSW,205,13.0,-999.0,-999,-99.99,,,-99.99,,2013-04-17 18:22:00,
2013-04-17 14:33:00,55.0,-99.9,30.12,SSW,205,13.0,-999.0,-999,-99.99,,,-99.99,,2013-04-17 18:33:00,
2013-04-17 14:42:00,55.0,-99.9,30.12,SSW,205,13.0,-999.0,-999,-99.99,,,-99.99,,2013-04-17 18:42:00,
2013-04-17 14:52:00,58.0,-99.9,30.13,SSW,198,11.0,-999.0,-999,-99.99,,,-99.99,,2013-04-17 18:52:00,
2013-04-17 15:03:00,58.0,-99.9,30.13,SSW,198,11.0,-999.0,-999,-99.99,,,-99.99,,2013-04-17 19:03:00,
2013-04-17 15:12:00,58.0,-99.9,30.13,SSW,198,11.0,-999.0,-999,-99.99,,,-99.99,,2013-04-17 19:12:00,
2013-04-17 15:22:00,54.0,-99.9,30.14,SSW,198,10.0,-999.0,-999,-99.99,,,-99.99,,2013-04-17 19:22:00,
2013-04-17 15:32:00,54.0,-99.9,30.14,SSW,198,10.0,-999.0,-999,-99.99,,,-99.99,,2013-04-17 19:32:00,
2013-04-17 15:42:00,54.0,-99.9,30.14,SSW,198,10.0,-999.0,-999,-99.99,,,-99.99,,2013-04-17 19:42:00,
2013-04-17 15:52:00,56.0,-99.9,30.15,SSW,213,11.0,-999.0,-999,-99.99,,,-99.99,,2013-04-17 19:52:00,
2013-04-17 16:03:00,56.0,-99.9,30.15,SSW,213,11.0,-999.0,-999,-99.99,,,-99.99,,2013-04-17 20:03:00,
2013-04-17 16:12:00,56.0,-99.9,30.15,SSW,213,11.0,-999.0,-999,-99.99,,,-99.99,,2013-04-17 20:12:00,
2013-04-17 16:22:00,57.0,-99.9,30.15,SW,235,9.0,-999.0,-999,-99.99,,,-99.99,,2013-04-17 20:22:00,
2013-04-17 16:33:00,57.0,-99.9,30.15,SW,235,9.0,-999.0,-999,-99.99,,,-99.99,,2013-04-17 20:33:00,
2013-04-17 16:42:00,57.0,-99.9,30.15,SW,235,9.0,-999.0,-999,-99.99,,,-99.99,,2013-04-17 20:42:00,
2013-04-17 16:53:00,57.0,-99.9,30.16,SW,232,11.0,-999.0,-999,-99.99,,,-99.99,,2013-04-17 20:53:00,
2013-04-17 17:03:00,57.0,-99.9,30.16,SW,232,11.0,-999.0,-999,-99.99,,,-99.99,,2013-04-17 21:03:00,
2013-04-17 17:13:00,57.0,-99.9,30.16,SW,232,11.0,-999.0,-999,-99.99,,,-99.99,,2013-04-17 21:13:00,
2013-04-17 17:22:00,55.0,-99.9,30.17,WSW,247,13.0,-999.0,-999,-99.99,,,-99.99,,2013-04-17 21:22:00,
2013-04-17 17:33:00,55.0,-99.9,30.17,WSW,247,13.0,-999.0,-999,-99.99,,,-99.99,,2013-04-17 21:33:00,
2013-04-17 17:43:00,55.0,-99.9,30.18,SW,229,12.0,-999.0,-999,-99.99,,,-99.99,,2013-04-17 21:43:00,
2013-04-17 17:53:00,55.0,-99.9,30.18,SW,229,12.0,-999.0,-999,-99.99,,,-99.99,,2013-04-17 21:53:00,
2013-04-17 18:02:00,55.0,-99.9,30.18,SW,229,12.0,-999.0,-999,-99.99,,,-99.99,,2013-04-17 22:02:00,
2013-04-17 18:13:00,54.0,-99.9,30.19,SW,233,11.0,-999.0,-999,-99.99,,,-99.99,,2013-04-17 22:13:00,
2013-04-17 18:22:00,54.0,-99.9,30.19,SW,233,11.0,-999.0,-999,-99.99,,,-99.99,,2013-04-17 22:22:00,
2013-04-17 18:33:00,54.0,-99.9,30.19,SW,233,11.0,-999.0,-999,-99.99,,,-99.99,,2013-04-17 22:33:00,
2013-04-17 18:43:00,54.0,-99.9,30.19,SW,233,11.0,-999.0,-999,-99.99,,,-99.99,,2013-04-17 22:43:00,
2013-04-17 18:53:00,53.0,-99.9,30.20,WSW,252,11.0,-999.0,-999,-99.99,,,-99.99,,2013-04-17 22:53:00,
2013-04-17 19:02:00,53.0,-99.9,30.20,WSW,252,11.0,-999.0,-999,-99.99,,,-99.99,,2013-04-17 23:02:00,
2013-04-17 19:12:00,53.0,-99.9,30.20,WSW,252,11.0,-999.0,-999,-99.99,,,-99.99,,2013-04-17 23:12:00,
2013-04-17 19:22:00,53.0,-99.9,30.22,WSW,248,7.0,-999.0,-999,-99.99,,,-99.99,,2013-04-17 23:22:00,
2013-04-17 19:32:00,53.0,-99.9,30.22,WSW,248,7.0,-999.0,-999,-99.99,,,-99.99,,2013-04-17 23:32:00,
2013-04-17 19:42:00,52.0,-99.9,30.23,WSW,250,7.0,-999.0,-999,-99.99,,,-99.99,,2013-04-17 23:42:00,
2013-04-17 19:52:00,52.0,-99.9,30.23,WSW,250,7.0,-999.0,-999,-99.99,,,-99.99,,2013-04-17 23:52:00,
2013-04-17 20:02:00,52.0,-99.9,30.23,WSW,250,7.0,-999.0,-999,-99.99,,,-99.99,,2013-04-18 00:02:00,
2013-04-17 20:12:00,52.0,-99.9,30.23,WSW,250,7.0,-999.0,-999,-99.99,,,-99.99,,2013-04-18 00:12:00,
2013-04-17 20:22:00,52.0,-99.9,30.25,SW,236,4.0,-999.0,-999,-99.99,,,-99.99,,2013-04-18 00:22:00,
2013-04-17 20:32:00,52.0,-99.9,30.25,SW,236,4.0,-999.0,-999,-99.99,,,-99.99,,2013-04-18 00:32:00,
2013-04-17 20:43:00,52.0,-99.9,30.25,SW,236,4.0,-999.0,-999,-99.99,,,-99.99,,2013-04-18 00:43:00,
2013-04-17 20:52:00,51.0,-99.9,30.25,WSW,255,7.0,-999.0,-999,-99.99,,,-99.99,,2013-04-18 00:52:00,
2013-04-17 21:02:00,51.0,-99.9,30.25,WSW,255,7.0,-999.0,-999,-99.99,,,-99.99,,2013-04-18 01:02:00,
2013-04-17 21:12:00,51.0,-99.9,30.25,WSW,255,7.0,-999.0,-999,-99.99,,,-99.99,,2013-04-18 01:12:00,
2013-04-17 21:22:00,50.0,-99.9,30.27,WNW,286,4.0,-999.0,-999,-99.99,,,-99.99,,2013-04-18 01:22:00,
2013-04-17 21:32:00,50.0,-99.9,30.27,WNW,286,4.0,-999.0,-999,-99.99,,,-99.99,,2013-04-18 01:32:00,
2013-04-17 21:42:00,50.0,-99.9,30.28,West,274,3.0,-999.0,-999,-99.99,,,-99.99,,2013-04-18 01:42:00,
2013-04-17 21:52:00,50.0,-99.9,30.28,West,274,3.0,-999.0,-999,-99.99,,,-99.99,,2013-04-18 01:52:00,
2013-04-17 22:02:00,50.0,-99.9,30.28,West,274,3.0,-999.0,-999,-99.99,,,-99.99,,2013-04-18 02:02:00,
2013-04-17 22:12:00,50.0,-99.9,30.28,West,273,4.0,-999.0,-999,-99.99,,,-99.99,,2013-04-18 02:12:00,
2013-04-17 22:22:00,50.0,-99.9,30.28,West,273,4.0,-999.0,-999,-99.99,,,-99.99,,2013-04-18 02:22:00,
2013-04-17 22:32:00,50.0,-99.9,30.28,West,273,4.0,-999.0,-999,-99.99,,,-99.99,,2013-04-18 02:32:00,
2013-04-17 22:42:00,50.0,-99.9,30.28,West,273,4.0,-999.0,-999,-99.99,,,-99.99,,2013-04-18 02:42:00,
2013-04-17 22:52:00,50.0,-99.9,30.28,West,273,4.0,-999.0,-999,-99.99,,,-99.99,,2013-04-18 02:52:00,
2013-04-17 23:02:00,49.0,-99.9,30.29,WSW,253,2.0,-999.0,-999,-99.99,,,-99.99,,2013-04-18 03:02:00,
2013-04-17 23:12:00,49.0,-99.9,30.29,WSW,253,2.0,-999.0,-999,-99.99,,,-99.99,,2013-04-18 03:12:00,
2013-04-17 23:22:00,50.0,-99.9,30.29,NW,318,2.0,-999.0,-999,-99.99,,,-99.99,,2013-04-18 03:22:00,
2013-04-17 23:30:00,49.0,-99.9,30.29,NW,309,2.0,-999.0,-999,-99.99,,,-99.99,,2013-04-18 03:30:00,
2013-04-17 23:33:00,50.0,-99.9,30.29,NW,318,2.0,-999.0,-999,-99.99,,,-99.99,,2013-04-18 03:33:00,
2013-04-17 23:43:00,49.0,-99.9,30.29,NW,309,2.0,-999.0,-999,-99.99,,,-99.99,,2013-04-18 03:43:00,
2013-04-17 23:53:00,49.0,-99.9,30.29,NW,309,2.0,-999.0,-999,-99.99,,,-99.99,,2013-04-18 03:53:00,